Regional Weather Roundup
Issued by NWS

Home | Current Version | Previous Version | Graphics & Text | Print | Product List | Glossary On
Versions: 1 2 3 4 5 6 7 8 9 10 11 12 13 14 15 16 17 18 19 20 21 22 23 24 25 26 27 28 29 30 31 32 33 34 35 36 37 38 39 40 41 42 43 44 45 46 47 48 49 50
956
ASUS43 KMPX 130710
RWRMN
WEATHER ROUNDUP FOR MINNESOTA
NATIONAL WEATHER SERVICE TWIN CITIES/CHANHASSEN MN
100 AM CST SAT FEB 13 2016


NOTE: "FAIR" INDICATES FEW OR NO CLOUDS BELOW 12,000 FEET WITH NO
SIGNIFICANT WEATHER AND/OR OBSTRUCTIONS TO VISIBILITY. N/A MEANS
CURRENT SKY AND/OR WEATHER CONDITIONS ARE NOT AVAILABLE.

MNZ060>063-068>070-130800-
   Twin Cities Metro

CITY           SKY/WX    TMP DP  RH WIND       PRES   REMARKS
TWIN CITIES    CLOUDY    -2 -12  62 NW10      30.63R WCI -19
ST PAUL        PTCLDY     0 -12  57 NW12      30.65R WCI -17
CRYSTAL        CLOUDY    -2 -12  62 NW10      30.63R WCI -19
BLAINE         CLOUDY    -2  -9  71 NW7       30.62R WCI -16
LAKEVILLE      CLOUDY    -4 -11  71 NW8       30.61S WCI -19
EDEN PRAIRIE   CLOUDY    -2 -12  62 NW8       30.62R WCI -17
SOUTH ST PAUL  CLOUDY     1 -13  53 NW6       30.64R WCI -11
LAKE ELMO      FAIR       0  -9  65 NW5       30.61S WCI -10
$$
MNZ001>005-007-008-013>017-022>024-027-028-130800-
   Northwest Minnesota

CITY           SKY/WX    TMP DP  RH WIND       PRES   REMARKS
BEMIDJI        CLOUDY   -16 -21  80 W3        30.58R
HALLOCK        CLOUDY   -15 -20  76 CALM      30.64F
ROSEAU         CLOUDY   -17 -24  70 CALM      30.61F
WARROAD        CLOUDY   -18 -24  76 W3        30.59F
THIEF RVR FALL CLOUDY   -13 -27  48 CALM      30.62F
CROOKSTON      CLOUDY    -9 -15  77 CALM      30.67S
FOSSTON          N/A    -24 -29  76 CALM      30.61S
DETROIT LAKES  CLOUDY    -9 -13  84 CALM      30.60S
MOORHEAD       CLOUDY    -8 -13  77 CALM      30.67S
PARK RAPIDS    CLOUDY   -17 -23  73 CALM      30.57R
MAHNOMEN       FAIR     -15 -19  80 CALM      30.62R
$$
MNZ006-009>011-018-025>026-130800-
   North Central Minnesota

CITY           SKY/WX    TMP DP  RH WIND       PRES   REMARKS
BAUDETTE       CLOUDY   -18 -24  74 NW8       30.57S WCI -36
FLAG ISLAND    CLOUDY   -17 -22  76 NW5       30.58S WCI -29
INTL FALLS     CLOUDY   -16 -22  74 W8        30.55R WCI -34
WASKISH        CLOUDY   -17 -20  83 W3        30.59R
LONGVILLE      CLOUDY   -13 -18  77 NW3       30.58R
GRAND RAPIDS   CLOUDY   -11 -20  64 NW7       30.54S WCI -26
CRANE LAKE     CLOUDY   -20 -26  76 CALM      30.56R
ORR            CLOUDY   -17 -24  70 CALM      30.50R
COOK           CLOUDY   -18 -24  76 W3        30.53R
WALKER         FAIR     -15 -20  78 W5        30.58S WCI -28
$$
MNZ012-019>021-037-130800-
   Northeast Minnesota

CITY           SKY/WX    TMP DP  RH WIND       PRES   REMARKS
DULUTH         CLOUDY   -11 -20  64 NW9       30.51R WCI -29
ELY            CLOUDY   -17 -20  83 W7        30.48S WCI -33
HIBBING        CLOUDY   -15 -22  70 NW12      30.52S WCI -36
EVELETH        CLOUDY    -9 -18  64 NW10      30.52R WCI -28
DULUTH HARBOR  CLOUDY    -2 -17  50 NW12G18   30.62S WCI -20
TWO HARBORS    CLEAR     -8 -18  59 NW5       30.51S WCI -19
SILVER BAY     CLEAR     -9 -18  64 CALM      30.50R
GRAND MARAIS     N/A     -6 -16  61 CALM      30.53R
G MARAIS ARPRT CLEAR    -15 -24  64 NW8G17    30.35R WCI -32
$$
MNZ029>031-032-039>041-046>048-054>057-064-130800-
   West Central Minnesota

CITY           SKY/WX    TMP DP  RH WIND       PRES   REMARKS
FERGUS FALLS   CLOUDY    -8 -13  77 CALM      30.68S
WHEATON        CLOUDY    -8 -13  77 W3        30.68S
MORRIS         CLOUDY    -8 -13  77 W3        30.63S
ALEXANDRIA     CLOUDY   -10 -16  74 N6        30.59F WCI -23
ELBOW LAKE     FAIR      -7 -11  81 N7        30.63S WCI -21
WADENA         CLOUDY   -13 -17  84 CALM      30.59S
GLENWOOD       CLOUDY    -9 -15  77 NW5       30.61S WCI -21
APPLETON       CLOUDY    -8 -13  77 NW3       30.66S
BENSON         CLOUDY    -8 -11  84 CALM      30.64S
ORTONVILLE     CLOUDY    -8 -15  71 NW3       30.65S
MADISON        CLOUDY    -6 -11  77 NW6       30.66S WCI -18
WILLMAR        FAIR      -2  -9  71 N8        30.63F WCI -17
$$
MNZ033>034-036-042>043-049>051-058-059-130800-
   Central Minnesota

CITY           SKY/WX    TMP DP  RH WIND       PRES   REMARKS
ST CLOUD       CLOUDY    -7 -15  68 NW9       30.62R WCI -24
SAUK CENTRE    FAIR      -9 -15  75 NW3       30.62S
PAYNESVILLE    CLOUDY    -7 -13  74 NW5       30.63S WCI -18
AITKIN         CLOUDY    -9 -18  64 CALM      30.58R
PINE RIVER     CLOUDY   -11 -18  70 NW3       30.60S
BRAINERD       CLOUDY   -10 -17  71 NW6       30.60R WCI -23
STAPLES        CLOUDY   -15 -20  76 NW3       30.60S
LONG PRAIRIE   FAIR      -9 -15  77 NW3       30.60S
LITTLE FALLS   CLOUDY    -9 -17  70 CALM      30.63S
LITCHFIELD     CLOUDY    -4 -11  71 NW9       30.63S WCI -20
BUFFALO        CLOUDY    -5 -13  67 NW6       30.64S WCI -18
MAPLE LAKE     CLOUDY    -4 -12  71 NW7       30.64S WCI -18
$$
MNZ037-044-045-052-053-130800-
   East Central Minnesota

CITY           SKY/WX    TMP DP  RH WIND       PRES   REMARKS
PRINCETON      CLOUDY    -6 -13  71 W7        30.61F WCI -20
MORA           CLOUDY    -6 -15  65 NW8       30.61R WCI -21
CAMBRIDGE      CLOUDY    -2 -15  55 CALM      30.60R
RUSH CITY      CLOUDY    -4 -15  59 NW6       30.60S WCI -16
MOOSE LAKE     CLOUDY    -8 -18  59 NW8       30.57S WCI -23
HINCKLEY       FAIR      -4 -15  59 NW10      30.59S WCI -21
CLOQUET        CLOUDY   -11 -18  70 W7        30.54S WCI -26
MCGREGOR       CLOUDY    -8 -17  65 CALM      30.58R
$$
MNZ071>073-080-081-089-090-097-098-130800-
   Southwest Minnesota

CITY           SKY/WX    TMP DP  RH WIND       PRES   REMARKS
MONTEVIDEO     CLOUDY    -8 -11  84 N5        30.66F WCI -19
GRANITE FALLS  CLOUDY    -3  -8  80 NW7       30.66F WCI -17
CANBY          CLOUDY    -3  -9  78 NW6       30.65S WCI -16
MARSHALL       CLOUDY    -5 -11  75 NW7       30.64S WCI -19
REDWOOD FALLS  CLOUDY    -3  -8  79 NW7       30.63F WCI -16
OLIVIA         CLOUDY     0  -8  71 NW8       30.63S WCI -15
PIPESTONE      CLOUDY    -4 -15  59 CALM      30.56S
WINDOM         CLOUDY    -6  -9  84 NW9       30.59F WCI -22
WORTHINGTON    CLOUDY    -8 -13  77 NW6       30.59S WCI -21
JACKSON        CLOUDY    -4  -9  77 N3        30.58S
TRACY          CLOUDY    -4  -9  79 NW6       30.62S WCI -17
SLAYTON        CLOUDY    -8 -13  80 NW5       30.58S WCI -20
$$
MNZ065>067-074>077-082>085-091>093-130800-
   South Central Minnesota

CITY           SKY/WX    TMP DP  RH WIND       PRES   REMARKS
MANKATO        CLOUDY    -2  -9  71 NW9       30.61F WCI -18
NEW ULM        CLOUDY    -2  -9  71 NW12      30.62S WCI -20
ST JAMES       CLOUDY    -2  -8  78 W9        30.63S WCI -18
FAIRMONT       CLOUDY    -2  -9  71 NW12      30.59S WCI -20
GLENCOE        CLOUDY    -2  -9  71 NW5       30.63S WCI -12
FARIBAULT      CLOUDY    -6 -13  71 W7        30.61R WCI -20
OWATONNA       CLOUDY    -4 -13  65 W7        30.59S WCI -18
WASECA         CLOUDY    -2  -9  71 NW6       30.62S WCI -14
ALBERT LEA     CLOUDY    -2  -9  71 NW3       30.58S
$$
MNZ078>079-086>088-094>096-130800-
   Southeast Minnesota

CITY           SKY/WX    TMP DP  RH WIND       PRES   REMARKS
ROCHESTER      CLOUDY    -4 -13  65 NW13      30.55R WCI -23
RED WING       PTCLDY     1 -17  42 N6        30.60S WCI -10
STANTON        PTCLDY    -1 -12  60 NW6       30.60S WCI -13
DODGE CENTER   CLOUDY    -2 -11  65 W9        30.56R WCI -18
WINONA         CLOUDY     3 -11  51 NW9       30.61R WCI -11
AUSTIN         CLOUDY    -2  -9  71 NW10      30.57S WCI -19
PRESTON        CLOUDY    -4 -13  64 NW9       30.55S WCI -20
$$
ABBREVIATIONS USED IN REMARKS
   TC - TEMPERATURES IN CELSIUS
  WCI - WIND CHILL INDEX
   HX - HEAT INDEX
  VSB - VISIBILITY
$$




USA.gov is the U.S. government's official web portal to all federal, state and local government web resources and services.